Sarasota, FL

10:46 AM EST on December 14, 2019 (GMT -0500)
Sarasota-bradenton

Weather History for KSRQ - October, 2019

Change the Weather History Date:

Monday, October 14, 2019

  Actual Average Record
Temperature  
Mean Temperature 82 °F 77 °F  
Max Temperature 91 °F 86 °F 99 °F (1962)
Min Temperature 73 °F 68 °F 47 °F (1977)
Degree Days  
Heating Degree Days 0 0  
Month to date heating degree days 0  
Since 1 July heating degree days 0  
Cooling Degree Days 17 12  
Month to date cooling degree days 188  
Year to date cooling degree days 2977  
Growing Degree Days 32 (Base 50)    
Moisture  
Dew Point 71 °F    
Average Humidity 72    
Maximum Humidity 90    
Minimum Humidity 48    
Precipitation  
Precipitation 0.00 in 0.10 in 6.17 in (1938)
Month to date precipitation 1.69  
Year to date precipitation 47.12  
Sea Level Pressure  
Sea Level Pressure 30.02 in    
Wind  
Wind Speed 6 mph ()    
Max Wind Speed 12 mph    
Max Gust Speed -    
Visibility 10.0 miles    
Events      
T = Trace of Precipitation, MM = Missing Value Source: Averaged Metar Reports

Daily Weather History Graph

Daily Weather History Graph

Search for Another Location

Airport or City:

Astronomy

Oct. 14, 2019 Rise Set
Actual Time 7:29 AM EDT 7:02 PM EDT
Civil Twilight 7:05 AM EDT 7:26 PM EDT
Nautical Twilight 6:38 AM EDT 7:53 PM EDT
Astronomical Twilight 6:11 AM EDT 8:20 PM EDT
Moon 7:53 PM EDT 8:01 AM EDT
Length of Visible Light 12h 20m
Length of Day
11h 33m
Waxing Gibbous, 99% of the Moon is Illuminated
Oct 14
Waxing Gibbous
Oct 21
Last Quarter
Oct 27
New
Nov 4
First Quarter
Nov 12
Full

Hourly Weather History & Observations

Time (EDT) Temp. Heat Index Dew Point Humidity Pressure Visibility Wind Dir Wind Speed Gust Speed Precip Events Conditions
12:53 AM 77.0 °F - 71.1 °F 82% 30.02 in 10.0 mi ESE 8.1 mph - N/A   Scattered Clouds
1:53 AM 77.0 °F - 71.1 °F 82% 30.01 in 10.0 mi ESE 8.1 mph - N/A   Clear
2:53 AM 75.9 °F - 71.1 °F 85% 30.00 in 10.0 mi ESE 6.9 mph - N/A   Clear
3:53 AM 75.0 °F - 71.1 °F 87% 30.00 in 10.0 mi East 3.5 mph - N/A   Clear
4:53 AM 75.0 °F - 71.1 °F 87% 29.99 in 10.0 mi East 5.8 mph - N/A   Clear
5:53 AM 73.9 °F - 70.0 °F 87% 30.00 in 10.0 mi ENE 4.6 mph - N/A   Clear
6:53 AM 73.0 °F - 70.0 °F 90% 30.01 in 10.0 mi ENE 5.8 mph - N/A   Clear
7:53 AM 73.9 °F - 70.0 °F 87% 30.03 in 10.0 mi ENE 4.6 mph - N/A   Clear
8:53 AM 78.1 °F - 71.1 °F 79% 30.04 in 10.0 mi East 4.6 mph - N/A   Clear
9:53 AM 82.9 °F 88.0 °F 72.0 °F 69% 30.06 in 10.0 mi ESE 6.9 mph - N/A   Clear
10:53 AM 86.0 °F 90.7 °F 70.0 °F 59% 30.06 in 10.0 mi East 6.9 mph - N/A   Clear
11:53 AM 88.0 °F 92.9 °F 70.0 °F 55% 30.05 in 10.0 mi SSE 5.8 mph - N/A   Mostly Cloudy
12:27 PM 88.0 °F 92.9 °F 70.0 °F 55% 30.05 in 10.0 mi SE 4.6 mph - N/A   Scattered Clouds
12:53 PM 89.1 °F 94.1 °F 70.0 °F 53% 30.03 in 10.0 mi East 6.9 mph - N/A   Scattered Clouds
1:53 PM 90.0 °F 93.6 °F 68.0 °F 48% 30.01 in 10.0 mi NE 5.8 mph - N/A   Scattered Clouds
2:53 PM 91.0 °F 97.6 °F 71.1 °F 52% 29.99 in 10.0 mi West 6.9 mph - N/A   Scattered Clouds
3:53 PM 89.1 °F 98.0 °F 73.9 °F 61% 29.98 in 10.0 mi WSW 9.2 mph - N/A   Partly Cloudy
4:53 PM 88.0 °F 96.5 °F 73.9 °F 63% 29.99 in 10.0 mi West 11.5 mph - N/A   Scattered Clouds
5:53 PM 87.1 °F 94.5 °F 73.0 °F 63% 29.99 in 10.0 mi West 11.5 mph - N/A   Scattered Clouds
6:53 PM 84.0 °F 90.2 °F 73.0 °F 69% 29.99 in 10.0 mi WNW 5.8 mph - N/A   Scattered Clouds
7:53 PM 82.9 °F 88.8 °F 73.0 °F 72% 30.00 in 10.0 mi NW 4.6 mph - N/A   Clear
8:53 PM 81.0 °F 85.8 °F 73.0 °F 77% 30.02 in 10.0 mi NNW 4.6 mph - N/A   Clear
9:53 PM 80.1 °F 84.5 °F 73.9 °F 81% 30.04 in 10.0 mi North 3.5 mph - N/A   Clear
10:53 PM 80.1 °F 84.2 °F 73.0 °F 79% 30.05 in 10.0 mi East 6.9 mph - N/A   Clear
11:53 PM 79.0 °F - 70.0 °F 74% 30.06 in 10.0 mi East 6.9 mph - N/A   Clear